Location: Quedlinburg
(51.7921°N, 11.1414°E)
Time: 21:47:56
(UTC+02:00)

SEEDS - Pass Details

Date: 23 March 2026
Orbit: 470 x 477 km, 97.8° (Epoch: 21 April)

Event Time Altitude Azimuth Distance (km) Brightness Sun altitude
Rises 04:46:38 0° 27° (NNE) 2,552 ? -13.7°
Reaches altitude 10° 04:49:14 10° 48° (NE) 1,664 ? -13.3°
Maximum altitude 04:51:42 18° 92° (E) 1,257 ? -12.9°
Drops below altitude 10° 04:54:10 10° 136° (SE) 1,648 ? -12.6°
Sets 04:56:43 0° 156° (SSE) 2,517 ? -12.2°
